Home   Weather   Aalen   Past weeks

Flag for Germany Past Weather in Aalen, Baden-Württemberg, Germany — Yesterday and Last 2 Weeks

Now
54 °F

Cool.


Feels Like: 54 °F
Forecast: 49 / 73 °F
Wind: 1 mph from North

Location: Niederstetten

Current Time: May 23, 2017 at 1:05:31 am

Latest Report: May 23, 2017 at 12:20 am


Visibility: N/A

Pressure: 30.07 "Hg

Humidity: 82%

Dew Point: 48 °F

Location of AalenLocation

Past Weather in Aalen — Graph

°F

Aalen Temperature Yesterday

Maximum temperature yesterday: 68 °F (at 5:20 pm)
Minimum temperature yesterday: 54 °F (at 1:20 am)
Average temperature yesterday: 59 °F

High & Low Weather Summary for the Past Weeks

 TemperatureHumidityPressure
High75 °F (May 17, 2:20 pm)100% (May 7, 11:20 pm)30.42 "Hg (May 7, 11:20 pm)
Low36 °F (May 10, 5:20 am)33% (May 16, 4:20 pm)29.50 "Hg (May 11, 5:20 pm)
Average56 °F72%30.02 "Hg
* Reported May 7 11:20 pm — May 22 11:20 pm, Aalen. Weather by CustomWeather, © 2017

Note: Actual official high and low records may vary slightly from our data, if they occured in-between our weather recording intervals... More about our weather records

Advertising

Aalen Weather History for the Previous 24 Hours

Scroll right to see more
 ConditionsComfort  
Time TempWeatherWind HumidityBarometerVisibility
11:20 pm
Mon, May 22
54 °FCool.3 mph77%30.07 "HgN/A
10:20 pm55 °FPassing clouds.2 mph77%30.07 "HgN/A
9:20 pm59 °FPassing clouds.3 mph63%30.07 "HgN/A
8:20 pm63 °FPassing clouds.3 mph56%30.04 "HgN/A
7:20 pm64 °FPassing clouds.5 mph56%30.04 "HgN/A
6:20 pm66 °FScattered clouds.3 mph52%30.07 "HgN/A
5:20 pm68 °FBroken clouds.6 mph49%30.07 "HgN/A
5:00 pm66 °FBroken clouds.6 mph52%30.07 "HgN/A
4:20 pm66 °FPartly sunny.5 mph52%30.07 "HgN/A
3:20 pm66 °FPartly sunny.6 mph56%30.09 "HgN/A
2:20 pm64 °FPartly sunny.5 mph52%30.09 "HgN/A
1:20 pm64 °FPartly sunny.5 mph56%30.09 "HgN/A
12:20 pm64 °FBroken clouds.6 mph60%30.12 "HgN/A
11:20 am63 °FPartly sunny.5 mph59%30.12 "HgN/A
10:20 am59 °FPartly sunny.5 mph68%30.12 "HgN/A
9:20 am57 °FPartly sunny.8 mph67%30.15 "HgN/A
8:20 am55 °FPartly sunny.9 mph72%30.12 "HgN/A
7:20 am54 °FPartly sunny.8 mph77%30.12 "HgN/A
6:20 am54 °FOvercast.7 mph72%30.12 "HgN/A
5:20 am54 °FOvercast.9 mph72%30.15 "HgN/A
4:20 am54 °FPassing clouds.8 mph77%30.15 "HgN/A
3:20 am54 °FPassing clouds.7 mph77%30.15 "HgN/A
2:20 am54 °FPassing clouds.5 mph77%30.18 "HgN/A
1:20 am54 °FPassing clouds.5 mph72%30.18 "HgN/A
Weather by CustomWeather, © 2017

See weather overviewHow to use our weather pages